Location: Borovka
(49.7741°N, 14.5280°E)
Time: 14:57:43
(UTC+00:00)

SO-50 - Visible Passes

Search period start: 17 March 2026 00:00
Search period end: 27 March 2026 00:00
Orbit: 568 x 673 km, 64.6° (Epoch: 17 March)

Date Brightness Start Highest point End Pass type
(mag) Time Alt. Az. Time Alt. Az. Time Alt. Az.
17 Mar ? 18:56:26 10° WNW 19:00:06 22° NNW 19:03:49 10° NNE visible
17 Mar ? 20:39:19 10° NNW 20:41:48 14° N 20:43:38 12° NNE visible
17 Mar ? 22:19:56 10° NNW 22:20:47 13° NNW 22:20:47 13° NNW visible
18 Mar ? 19:15:13 10° WNW 19:18:21 17° NNW 19:21:30 10° NNE visible
18 Mar ? 20:57:33 10° NNW 21:00:11 14° N 21:00:54 14° NNE visible
18 Mar ? 22:37:34 10° NNW 22:38:03 12° NNW 22:38:03 12° NNW visible
19 Mar ? 17:51:04 10° W 17:55:12 29° NNW 17:59:24 10° NNE visible
19 Mar ? 19:34:00 10° NW 19:36:40 15° N 19:39:22 10° NNE visible
19 Mar ? 21:15:27 10° NNW 21:18:08 16° N 21:18:08 16° N visible
19 Mar ? 22:55:10 10° NNW 22:55:17 11° NNW 22:55:17 11° NNW visible
20 Mar ? 18:09:41 10° WNW 18:13:20 21° NNW 18:17:01 10° NNE visible
20 Mar ? 19:52:34 10° NNW 19:55:03 14° N 19:57:31 10° NNE visible
20 Mar ? 21:33:09 10° NNW 21:35:20 18° N 21:35:20 18° N visible
21 Mar ? 18:28:27 10° WNW 18:31:34 17° NNW 18:34:42 10° NNE visible
21 Mar ? 20:10:46 10° NNW 20:13:24 14° N 20:15:24 12° NE visible
21 Mar ? 21:50:46 10° NNW 21:52:32 19° NNW 21:52:32 19° NNW visible
22 Mar ? 18:47:14 10° NW 18:49:54 15° N 18:52:34 10° NNE visible
22 Mar ? 20:28:38 10° NNW 20:31:44 17° NNE 20:32:34 16° NNE visible
22 Mar ? 22:08:22 10° NNW 22:09:43 18° NNW 22:09:43 18° NNW visible
23 Mar ? 19:05:46 10° NNW 19:08:15 14° N 19:10:43 10° NNE visible
23 Mar ? 20:46:19 10° NNW 20:49:45 21° NNE 20:49:45 21° NNE visible
23 Mar ? 22:25:59 10° NW 22:26:54 15° NW 22:26:54 15° NW visible
24 Mar ? 19:23:57 10° NNW 19:26:36 14° N 19:29:16 10° NE visible
24 Mar ? 21:03:56 10° NNW 21:06:56 25° N 21:06:56 25° N visible
24 Mar ? 22:43:43 10° NW 22:44:05 12° NW 22:44:05 12° NW visible
25 Mar ? 18:00:27 10° NW 18:03:05 14° N 18:05:44 10° NNE visible
25 Mar ? 19:41:48 10° NNW 19:44:54 17° NNE 19:46:59 13° NE visible
25 Mar ? 21:21:31 10° NNW 21:24:08 28° N 21:24:08 28° N visible
26 Mar ? 18:18:57 10° NNW 18:21:26 14° N 18:23:54 10° NNE visible
26 Mar ? 19:59:28 10° NNW 20:03:09 21° NNE 20:04:10 20° NE visible
26 Mar ? 21:39:09 10° NW 21:41:19 26° NNW 21:41:19 26° NNW visible
